Terminal Aerodrome Forecast
Issued by NWS Grand Rapids, MI

Home | Current Version | Previous Version | Text Only | Print | Product List | Glossary On
Versions: 1 2 3 4 5 6 7 8 9 10 11 12 13
820
FTUS43 KGRR 231140
TAFGRR
TAF
KGRR 231140Z 2312/2412 14006KT P6SM BKN200
     FM231500 15011KT P6SM OVC200
     FM240300 16012KT P6SM VCSH OVC050
     FM240600 18012KT P6SM -SHRA OVC025
     FM241000 19016KT P6SM VCSH OVC050=

USA.gov is the U.S. government's official web portal to all federal, state and local government web resources and services.